Time,TemperatureF,DewpointF,PressureIn,WindDirection,WindDirectionDegrees,WindSpeedMPH,WindSpeedGustMPH,Humidity,HourlyPrecipIn,Conditions,Clouds,dailyrainin,SoftwareType,DateUTC
2013-06-01 00:00:00,68.4,62.7,29.66,ENE,68,0.0,0.0,82,0.00,,,0.00,WUHU216HW,2013-06-01 04:00:00,
2013-06-01 00:01:00,68.4,62.7,29.66,ENE,68,0.0,0.0,82,0.00,,,0.00,WUHU216HW,2013-06-01 04:01:00,
2013-06-01 00:02:00,68.4,62.7,29.66,ENE,68,0.0,0.0,82,0.00,,,0.00,WUHU216HW,2013-06-01 04:02:00,
2013-06-01 00:08:00,68.2,62.6,29.66,ENE,68,0.0,0.0,82,0.00,,,0.00,WUHU216HW,2013-06-01 04:08:00,
2013-06-01 00:13:00,68.0,62.4,29.66,ENE,68,0.0,0.0,82,0.00,,,0.00,WUHU216HW,2013-06-01 04:13:00,
2013-06-01 00:18:00,68.0,62.7,29.65,ENE,68,0.3,0.4,83,0.00,,,0.00,WUHU216HW,2013-06-01 04:18:00,
2013-06-01 00:23:00,67.7,62.6,29.65,ENE,68,0.4,0.4,84,0.00,,,0.00,WUHU216HW,2013-06-01 04:23:00,
2013-06-01 00:28:00,67.5,62.5,29.65,ENE,68,0.0,0.4,84,0.00,,,0.00,WUHU216HW,2013-06-01 04:28:00,
2013-06-01 00:33:00,67.3,62.3,29.65,ENE,68,0.4,0.9,84,0.00,,,0.00,WUHU216HW,2013-06-01 04:33:00,
2013-06-01 00:38:00,67.1,62.1,29.65,ENE,68,0.7,1.1,84,0.00,,,0.00,WUHU216HW,2013-06-01 04:38:00,
2013-06-01 00:43:00,67.1,62.1,29.65,ENE,68,0.2,1.1,84,0.00,,,0.00,WUHU216HW,2013-06-01 04:43:00,
2013-06-01 00:48:00,67.0,62.3,29.65,ENE,68,0.0,1.1,85,0.00,,,0.00,WUHU216HW,2013-06-01 04:48:00,
2013-06-01 00:54:00,66.8,62.1,29.65,ENE,68,0.0,0.7,85,0.00,,,0.00,WUHU216HW,2013-06-01 04:54:00,
2013-06-01 00:59:00,66.6,61.9,29.64,ENE,68,0.0,1.1,85,0.00,,,0.00,WUHU216HW,2013-06-01 04:59:00,
2013-06-01 01:04:00,66.6,61.9,29.64,ENE,68,0.4,1.1,85,0.00,,,0.00,WUHU216HW,2013-06-01 05:04:00,
2013-06-01 01:09:00,66.6,61.9,29.64,ENE,68,0.0,1.1,85,0.00,,,0.00,WUHU216HW,2013-06-01 05:09:00,
2013-06-01 01:14:00,66.4,61.7,29.64,ENE,68,0.0,0.4,85,0.00,,,0.00,WUHU216HW,2013-06-01 05:14:00,
2013-06-01 01:19:00,66.4,62.1,29.64,ENE,68,0.0,1.1,86,0.00,,,0.00,WUHU216HW,2013-06-01 05:19:00,
2013-06-01 01:24:00,66.2,61.9,29.64,ENE,68,0.0,1.1,86,0.00,,,0.00,WUHU216HW,2013-06-01 05:24:00,
2013-06-01 01:29:00,66.2,61.9,29.64,ENE,68,0.0,0.0,86,0.00,,,0.00,WUHU216HW,2013-06-01 05:29:00,
2013-06-01 01:35:00,66.1,61.8,29.64,ENE,68,0.0,0.0,86,0.00,,,0.00,WUHU216HW,2013-06-01 05:35:00,
2013-06-01 01:40:00,65.9,61.6,29.64,ENE,68,0.0,0.0,86,0.00,,,0.00,WUHU216HW,2013-06-01 05:40:00,
2013-06-01 01:45:00,65.9,61.8,29.64,ENE,68,1.1,1.1,87,0.00,,,0.00,WUHU216HW,2013-06-01 05:45:00,
2013-06-01 01:50:00,65.7,61.8,29.63,ENE,68,0.6,1.1,87,0.00,,,0.00,WUHU216HW,2013-06-01 05:50:00,
2013-06-01 01:55:00,65.5,61.6,29.64,ENE,68,0.0,1.1,87,0.00,,,0.00,WUHU216HW,2013-06-01 05:55:00,
2013-06-01 02:00:00,65.5,61.6,29.64,ENE,68,0.2,0.4,87,0.00,,,0.00,WUHU216HW,2013-06-01 06:00:00,
2013-06-01 02:05:00,65.3,61.4,29.64,ENE,68,0.6,0.9,87,0.00,,,0.00,WUHU216HW,2013-06-01 06:05:00,
2013-06-01 02:10:00,65.3,61.8,29.64,ENE,68,0.4,0.9,88,0.00,,,0.00,WUHU216HW,2013-06-01 06:10:00,
2013-06-01 02:16:00,65.2,61.2,29.64,ENE,68,0.5,1.1,87,0.00,,,0.00,WUHU216HW,2013-06-01 06:16:00,
2013-06-01 02:21:00,65.2,61.2,29.64,ENE,68,0.4,1.1,87,0.00,,,0.00,WUHU216HW,2013-06-01 06:21:00,
2013-06-01 02:26:00,65.0,61.0,29.63,ENE,68,0.9,0.9,87,0.00,,,0.00,WUHU216HW,2013-06-01 06:26:00,
2013-06-01 02:31:00,65.0,61.0,29.63,ENE,68,0.0,0.9,87,0.00,,,0.00,WUHU216HW,2013-06-01 06:31:00,
2013-06-01 02:36:00,64.8,60.8,29.63,ENE,68,0.4,0.7,87,0.00,,,0.00,WUHU216HW,2013-06-01 06:36:00,
2013-06-01 02:41:00,64.8,60.8,29.63,ENE,68,0.0,0.7,87,0.00,,,0.00,WUHU216HW,2013-06-01 06:41:00,
2013-06-01 02:46:00,64.6,60.7,29.63,ENE,68,0.0,0.4,87,0.00,,,0.00,WUHU216HW,2013-06-01 06:46:00,
2013-06-01 02:51:00,64.6,60.7,29.63,ENE,68,0.0,0.0,87,0.00,,,0.00,WUHU216HW,2013-06-01 06:51:00,
2013-06-01 02:57:00,64.4,60.6,29.63,ENE,68,0.9,0.9,87,0.00,,,0.00,WUHU216HW,2013-06-01 06:57:00,
2013-06-01 03:02:00,64.4,60.8,29.63,ENE,68,0.0,0.9,88,0.00,,,0.00,WUHU216HW,2013-06-01 07:02:00,
2013-06-01 03:07:00,64.4,60.8,29.63,ENE,68,0.2,0.7,88,0.00,,,0.00,WUHU216HW,2013-06-01 07:07:00,
2013-06-01 03:12:00,64.3,60.7,29.63,ENE,68,0.6,1.1,88,0.00,,,0.00,WUHU216HW,2013-06-01 07:12:00,
2013-06-01 03:17:00,64.1,60.5,29.63,ENE,68,0.0,1.1,88,0.00,,,0.00,WUHU216HW,2013-06-01 07:17:00,
2013-06-01 03:22:00,64.1,60.5,29.63,ENE,68,0.2,0.4,88,0.00,,,0.00,WUHU216HW,2013-06-01 07:22:00,
2013-06-01 03:27:00,64.1,60.5,29.63,ENE,68,0.0,0.4,88,0.00,,,0.00,WUHU216HW,2013-06-01 07:27:00,
2013-06-01 03:32:00,64.1,60.5,29.63,ENE,68,0.4,0.4,88,0.00,,,0.00,WUHU216HW,2013-06-01 07:32:00,
2013-06-01 03:38:00,63.9,60.3,29.63,ENE,68,0.0,0.4,88,0.00,,,0.00,WUHU216HW,2013-06-01 07:38:00,
2013-06-01 03:43:00,63.9,60.3,29.63,ENE,68,0.0,0.4,88,0.00,,,0.00,WUHU216HW,2013-06-01 07:43:00,
2013-06-01 03:48:00,63.7,60.1,29.63,ENE,68,0.5,0.7,88,0.00,,,0.00,WUHU216HW,2013-06-01 07:48:00,
2013-06-01 03:53:00,63.7,60.1,29.63,ENE,68,0.0,0.7,88,0.00,,,0.00,WUHU216HW,2013-06-01 07:53:00,
2013-06-01 03:58:00,63.5,59.9,29.63,ENE,68,0.0,0.0,88,0.00,,,0.00,WUHU216HW,2013-06-01 07:58:00,
2013-06-01 04:03:00,63.5,59.9,29.63,ENE,68,0.0,0.0,88,0.00,,,0.00,WUHU216HW,2013-06-01 08:03:00,
2013-06-01 04:08:00,63.4,59.8,29.63,ENE,68,0.0,0.0,88,0.00,,,0.00,WUHU216HW,2013-06-01 08:08:00,
2013-06-01 04:13:00,63.4,59.8,29.63,ENE,68,0.2,0.2,88,0.00,,,0.00,WUHU216HW,2013-06-01 08:13:00,
2013-06-01 04:19:00,63.4,59.8,29.63,ENE,68,0.0,0.2,88,0.00,,,0.00,WUHU216HW,2013-06-01 08:19:00,
2013-06-01 04:24:00,63.2,59.9,29.63,ENE,68,0.0,0.0,89,0.00,,,0.00,WUHU216HW,2013-06-01 08:24:00,
2013-06-01 04:29:00,63.2,59.9,29.63,ENE,68,0.0,0.0,89,0.00,,,0.00,WUHU216HW,2013-06-01 08:29:00,
2013-06-01 04:34:00,63.2,59.6,29.63,ENE,68,0.0,0.0,88,0.00,,,0.00,WUHU216HW,2013-06-01 08:34:00,
2013-06-01 04:39:00,63.0,59.8,29.63,ENE,68,0.0,0.0,89,0.00,,,0.00,WUHU216HW,2013-06-01 08:39:00,
2013-06-01 04:44:00,63.0,59.8,29.63,ENE,68,0.0,0.0,89,0.00,,,0.00,WUHU216HW,2013-06-01 08:44:00,
2013-06-01 04:49:00,63.0,59.8,29.63,ENE,68,0.0,0.0,89,0.00,,,0.00,WUHU216HW,2013-06-01 08:49:00,
2013-06-01 04:54:00,63.0,59.8,29.63,ENE,68,0.0,0.0,89,0.00,,,0.00,WUHU216HW,2013-06-01 08:54:00,
2013-06-01 04:59:00,62.8,59.6,29.64,ENE,68,0.0,0.0,89,0.00,,,0.00,WUHU216HW,2013-06-01 08:59:00,
2013-06-01 05:05:00,62.8,59.6,29.64,ENE,68,0.0,0.0,89,0.00,,,0.00,WUHU216HW,2013-06-01 09:05:00,
2013-06-01 05:10:00,62.6,59.4,29.63,ENE,68,0.0,1.1,89,0.00,,,0.00,WUHU216HW,2013-06-01 09:10:00,
2013-06-01 05:15:00,62.6,59.4,29.63,ENE,68,0.0,1.1,89,0.00,,,0.00,WUHU216HW,2013-06-01 09:15:00,
2013-06-01 05:20:00,62.6,59.4,29.63,ENE,68,0.0,0.2,89,0.00,,,0.00,WUHU216HW,2013-06-01 09:20:00,
2013-06-01 05:25:00,62.6,59.4,29.64,ENE,68,0.0,0.0,89,0.00,,,0.00,WUHU216HW,2013-06-01 09:25:00,
2013-06-01 05:30:00,62.5,59.2,29.64,ENE,68,0.0,0.0,89,0.00,,,0.00,WUHU216HW,2013-06-01 09:30:00,
2013-06-01 05:35:00,62.5,59.2,29.63,ENE,68,0.0,0.0,89,0.00,,,0.00,WUHU216HW,2013-06-01 09:35:00,
2013-06-01 05:41:00,62.5,59.2,29.63,ENE,68,0.4,0.4,89,0.00,,,0.00,WUHU216HW,2013-06-01 09:41:00,
2013-06-01 05:46:00,62.5,59.2,29.64,ENE,68,0.0,0.4,89,0.00,,,0.00,WUHU216HW,2013-06-01 09:46:00,
2013-06-01 05:51:00,62.5,59.2,29.64,ENE,68,0.0,0.0,89,0.00,,,0.00,WUHU216HW,2013-06-01 09:51:00,
2013-06-01 05:56:00,62.5,59.2,29.64,ENE,68,0.0,0.0,89,0.00,,,0.00,WUHU216HW,2013-06-01 09:56:00,
2013-06-01 06:01:00,62.5,59.2,29.64,ENE,68,0.0,0.0,89,0.00,,,0.00,WUHU216HW,2013-06-01 10:01:00,
2013-06-01 06:06:00,62.6,59.4,29.64,ENE,68,0.0,0.0,89,0.00,,,0.00,WUHU216HW,2013-06-01 10:06:00,
2013-06-01 06:11:00,62.6,59.8,29.64,ENE,68,0.0,0.0,90,0.00,,,0.00,WUHU216HW,2013-06-01 10:11:00,
2013-06-01 06:16:00,62.6,59.8,29.64,ENE,68,0.0,0.0,90,0.00,,,0.00,WUHU216HW,2013-06-01 10:16:00,
2013-06-01 06:21:00,62.8,59.9,29.64,ENE,68,0.0,0.0,90,0.00,,,0.00,WUHU216HW,2013-06-01 10:21:00,
2013-06-01 06:27:00,63.0,60.1,29.64,ENE,68,0.0,0.0,90,0.00,,,0.00,WUHU216HW,2013-06-01 10:27:00,
2013-06-01 06:32:00,63.0,60.1,29.63,WNW,293,0.2,0.7,90,0.00,,,0.00,WUHU216HW,2013-06-01 10:32:00,
2013-06-01 06:37:00,63.2,60.3,29.63,WNW,293,0.0,0.7,90,0.00,,,0.00,WUHU216HW,2013-06-01 10:37:00,
2013-06-01 06:42:00,63.4,60.5,29.63,WNW,293,0.0,0.0,90,0.00,,,0.00,WUHU216HW,2013-06-01 10:42:00,
2013-06-01 06:47:00,63.7,60.8,29.63,WNW,293,0.0,0.0,90,0.00,,,0.00,WUHU216HW,2013-06-01 10:47:00,
2013-06-01 06:52:00,63.9,61.0,29.64,WNW,293,0.0,0.0,90,0.00,,,0.00,WUHU216HW,2013-06-01 10:52:00,
2013-06-01 06:57:00,64.1,61.2,29.64,WNW,293,0.0,0.0,90,0.00,,,0.00,WUHU216HW,2013-06-01 10:57:00,
2013-06-01 07:02:00,64.4,61.6,29.64,WNW,293,0.0,0.0,90,0.00,,,0.00,WUHU216HW,2013-06-01 11:02:00,
2013-06-01 07:08:00,64.6,61.8,29.64,WNW,293,0.0,0.0,90,0.00,,,0.00,WUHU216HW,2013-06-01 11:08:00,
2013-06-01 07:13:00,64.8,61.9,29.64,WNW,293,0.0,0.0,90,0.00,,,0.00,WUHU216HW,2013-06-01 11:13:00,
2013-06-01 07:18:00,65.3,62.6,29.64,WNW,293,0.0,0.0,91,0.00,,,0.00,WUHU216HW,2013-06-01 11:18:00,
2013-06-01 07:23:00,65.7,63.0,29.64,WNW,293,0.0,0.0,91,0.00,,,0.00,WUHU216HW,2013-06-01 11:23:00,
2013-06-01 07:28:00,65.9,63.5,29.64,WNW,293,0.0,0.0,92,0.00,,,0.00,WUHU216HW,2013-06-01 11:28:00,
2013-06-01 07:33:00,66.4,63.6,29.64,WNW,293,0.0,0.0,91,0.00,,,0.00,WUHU216HW,2013-06-01 11:33:00,
2013-06-01 07:38:00,66.6,63.8,29.64,West,270,0.5,0.7,91,0.00,,,0.00,WUHU216HW,2013-06-01 11:38:00,
2013-06-01 07:44:00,67.3,64.5,29.64,WSW,248,0.9,1.3,91,0.00,,,0.00,WUHU216HW,2013-06-01 11:44:00,
2013-06-01 07:49:00,67.5,64.7,29.64,WSW,248,0.2,1.3,91,0.00,,,0.00,WUHU216HW,2013-06-01 11:49:00,
2013-06-01 07:54:00,68.2,65.4,29.64,WSW,248,0.0,0.4,91,0.00,,,0.00,WUHU216HW,2013-06-01 11:54:00,
2013-06-01 07:59:00,68.6,65.8,29.64,WSW,248,0.2,0.4,91,0.00,,,0.00,WUHU216HW,2013-06-01 11:59:00,
2013-06-01 08:04:00,69.1,66.1,29.64,WSW,248,0.0,0.4,90,0.00,,,0.00,WUHU216HW,2013-06-01 12:04:00,
2013-06-01 08:09:00,69.5,66.1,29.64,WSW,248,0.0,0.0,89,0.00,,,0.00,WUHU216HW,2013-06-01 12:09:00,
2013-06-01 08:14:00,69.7,66.2,29.64,WSW,248,0.0,0.0,89,0.00,,,0.00,WUHU216HW,2013-06-01 12:14:00,
2013-06-01 08:19:00,70.2,66.4,29.64,WSW,248,0.2,1.1,88,0.00,,,0.00,WUHU216HW,2013-06-01 12:19:00,
2013-06-01 08:25:00,70.4,66.6,29.64,WSW,248,0.0,1.1,88,0.00,,,0.00,WUHU216HW,2013-06-01 12:25:00,
2013-06-01 08:30:00,71.1,67.1,29.64,WSW,248,0.4,0.4,87,0.00,,,0.00,WUHU216HW,2013-06-01 12:30:00,
2013-06-01 08:35:00,71.5,67.1,29.64,WSW,248,0.0,0.4,86,0.00,,,0.00,WUHU216HW,2013-06-01 12:35:00,
2013-06-01 08:40:00,71.8,67.4,29.65,WSW,248,0.4,0.4,86,0.00,,,0.00,WUHU216HW,2013-06-01 12:40:00,
2013-06-01 08:45:00,72.4,67.6,29.65,SW,225,0.0,0.4,85,0.00,,,0.00,WUHU216HW,2013-06-01 12:45:00,
2013-06-01 08:50:00,72.7,67.6,29.65,SW,225,0.2,0.4,84,0.00,,,0.00,WUHU216HW,2013-06-01 12:50:00,
2013-06-01 08:55:00,73.1,68.3,29.64,SW,225,0.0,0.4,85,0.00,,,0.00,WUHU216HW,2013-06-01 12:55:00,
2013-06-01 09:00:00,73.4,68.3,29.64,SW,225,0.2,0.4,84,0.00,,,0.00,WUHU216HW,2013-06-01 13:00:00,
2013-06-01 09:05:00,74.0,68.5,29.64,SW,225,0.4,0.4,83,0.00,,,0.00,WUHU216HW,2013-06-01 13:05:00,
2013-06-01 09:10:00,74.3,68.9,29.64,NE,45,0.0,0.4,83,0.00,,,0.00,WUHU216HW,2013-06-01 13:10:00,
2013-06-01 09:16:00,74.7,69.2,29.64,WSW,248,0.0,0.4,83,0.00,,,0.00,WUHU216HW,2013-06-01 13:16:00,
2013-06-01 09:21:00,74.9,69.1,29.64,SSE,158,0.0,0.4,82,0.00,,,0.00,WUHU216HW,2013-06-01 13:21:00,
2013-06-01 09:26:00,75.4,69.3,29.64,North,0,0.0,0.4,81,0.00,,,0.00,WUHU216HW,2013-06-01 13:26:00,
2013-06-01 09:31:00,76.3,69.4,29.64,SSE,158,0.4,0.4,79,0.00,,,0.00,WUHU216HW,2013-06-01 13:31:00,
2013-06-01 09:36:00,77.0,69.7,29.64,SW,224,0.5,0.7,78,0.00,,,0.00,WUHU216HW,2013-06-01 13:36:00,
2013-06-01 09:41:00,77.6,69.4,29.64,SW,225,1.3,1.6,76,0.00,,,0.00,WUHU216HW,2013-06-01 13:41:00,
2013-06-01 09:46:00,77.9,69.8,29.64,SW,225,1.3,1.6,76,0.00,,,0.00,WUHU216HW,2013-06-01 13:46:00,
2013-06-01 09:51:00,79.0,69.6,29.64,WSW,237,0.8,1.8,73,0.00,,,0.00,WUHU216HW,2013-06-01 13:51:00,
2013-06-01 09:56:00,79.7,69.9,29.64,WSW,248,0.9,1.8,72,0.00,,,0.00,WUHU216HW,2013-06-01 13:56:00,
2013-06-01 10:01:00,80.5,70.2,29.63,SE,135,0.2,1.3,71,0.00,,,0.00,WUHU216HW,2013-06-01 14:01:00,
2013-06-01 10:07:00,82.1,72.2,29.63,ESE,119,0.6,1.1,72,0.00,,,0.00,WUHU216HW,2013-06-01 14:07:00,
2013-06-01 10:12:00,83.2,71.9,29.63,WSW,248,1.8,1.8,69,0.00,,,0.00,WUHU216HW,2013-06-01 14:12:00,
2013-06-01 10:17:00,84.4,71.8,29.63,NNE,23,1.6,1.8,66,0.00,,,0.00,WUHU216HW,2013-06-01 14:17:00,
2013-06-01 10:22:00,84.6,72.5,29.62,WSW,248,1.6,1.8,67,0.00,,,0.00,WUHU216HW,2013-06-01 14:22:00,
2013-06-01 10:27:00,86.2,72.6,29.62,WSW,245,1.1,1.6,64,0.00,,,0.00,WUHU216HW,2013-06-01 14:27:00,
2013-06-01 10:32:00,87.5,72.9,29.62,SW,225,0.7,1.6,62,0.00,,,0.00,WUHU216HW,2013-06-01 14:32:00,
2013-06-01 10:37:00,88.2,71.7,29.62,North,11,1.0,1.6,58,0.00,,,0.00,WUHU216HW,2013-06-01 14:37:00,
2013-06-01 10:42:00,88.6,72.5,29.62,SSE,158,0.2,1.1,59,0.00,,,0.00,WUHU216HW,2013-06-01 14:42:00,
2013-06-01 10:48:00,90.0,73.3,29.62,SW,225,0.7,0.7,58,0.00,,,0.00,WUHU216HW,2013-06-01 14:48:00,
2013-06-01 10:53:00,90.5,72.6,29.61,North,0,1.1,1.1,56,0.00,,,0.00,WUHU216HW,2013-06-01 14:53:00,
2013-06-01 10:58:00,91.1,72.5,29.61,SSW,213,0.3,1.3,55,0.00,,,0.00,WUHU216HW,2013-06-01 14:58:00,
2013-06-01 11:03:00,92.2,73.6,29.61,NNW,338,0.9,1.3,55,0.00,,,0.00,WUHU216HW,2013-06-01 15:03:00,
2013-06-01 11:08:00,93.1,73.9,29.61,WSW,248,1.5,1.8,54,0.00,,,0.00,WUHU216HW,2013-06-01 15:08:00,
2013-06-01 11:13:00,93.8,72.9,29.61,WSW,248,2.2,2.2,51,0.00,,,0.00,WUHU216HW,2013-06-01 15:13:00,
2013-06-01 11:18:00,94.7,73.8,29.61,SW,225,2.9,2.9,51,0.00,,,0.00,WUHU216HW,2013-06-01 15:18:00,
2013-06-01 11:23:00,94.9,73.4,29.61,SW,225,2.2,2.9,50,0.00,,,0.00,WUHU216HW,2013-06-01 15:23:00,
2013-06-01 11:28:00,95.8,73.6,29.60,WSW,248,0.4,2.5,49,0.00,,,0.00,WUHU216HW,2013-06-01 15:28:00,
2013-06-01 11:33:00,96.7,73.1,29.60,SSW,205,0.9,2.2,47,0.00,,,0.00,WUHU216HW,2013-06-01 15:33:00,
2013-06-01 11:39:00,96.7,72.5,29.60,WSW,248,0.7,2.2,46,0.00,,,0.00,WUHU216HW,2013-06-01 15:39:00,
2013-06-01 11:44:00,96.7,72.5,29.60,WSW,248,0.9,1.8,46,0.00,,,0.00,WUHU216HW,2013-06-01 15:44:00,
2013-06-01 11:49:00,96.5,71.6,29.60,NNW,338,0.2,1.3,45,0.00,,,0.00,WUHU216HW,2013-06-01 15:49:00,
2013-06-01 11:54:00,96.8,72.5,29.60,SW,225,0.9,1.8,46,0.00,,,0.00,WUHU216HW,2013-06-01 15:54:00,
2013-06-01 11:59:00,97.6,71.9,29.59,SW,225,2.7,4.7,44,0.00,,,0.00,WUHU216HW,2013-06-01 15:59:00,
2013-06-01 12:04:00,98.3,73.2,29.59,West,270,1.8,4.7,45,0.00,,,0.00,WUHU216HW,2013-06-01 16:04:00,
2013-06-01 12:09:00,99.2,70.7,29.59,WSW,248,3.4,3.4,40,0.00,,,0.00,WUHU216HW,2013-06-01 16:09:00,
2013-06-01 12:15:00,99.4,71.6,29.59,SSW,203,1.3,3.4,41,0.00,,,0.00,WUHU216HW,2013-06-01 16:15:00,
2013-06-01 12:20:00,99.4,72.2,29.59,WSW,248,1.2,3.4,42,0.00,,,0.00,WUHU216HW,2013-06-01 16:20:00,
2013-06-01 12:25:00,99.5,73.0,29.59,West,270,3.1,3.1,43,0.00,,,0.00,WUHU216HW,2013-06-01 16:25:00,
2013-06-01 12:30:00,99.9,72.0,29.58,SW,225,2.7,4.0,41,0.00,,,0.00,WUHU216HW,2013-06-01 16:30:00,
2013-06-01 12:35:00,100.3,72.4,29.58,WSW,245,1.3,4.0,41,0.00,,,0.00,WUHU216HW,2013-06-01 16:35:00,
2013-06-01 12:40:00,100.4,71.0,29.58,East,90,1.8,3.8,39,0.00,,,0.00,WUHU216HW,2013-06-01 16:40:00,
2013-06-01 12:45:00,100.1,69.8,29.58,West,274,1.3,3.6,38,0.00,,,0.00,WUHU216HW,2013-06-01 16:45:00,
2013-06-01 12:50:00,100.1,70.7,29.58,WSW,248,2.5,3.6,39,0.00,,,0.00,WUHU216HW,2013-06-01 16:50:00,
2013-06-01 12:56:00,99.9,68.9,29.58,SW,225,2.5,2.7,37,0.00,,,0.00,WUHU216HW,2013-06-01 16:56:00,
2013-06-01 13:01:00,99.9,69.7,29.57,ESE,112,2.4,3.1,38,0.00,,,0.00,WUHU216HW,2013-06-01 17:01:00,
2013-06-01 13:06:00,100.3,70.0,29.57,SW,225,2.5,3.1,38,0.00,,,0.00,WUHU216HW,2013-06-01 17:06:00,
2013-06-01 13:11:00,100.4,70.2,29.56,WSW,248,3.1,5.4,38,0.00,,,0.00,WUHU216HW,2013-06-01 17:11:00,
2013-06-01 13:16:00,101.0,68.9,29.56,WSW,248,1.3,5.4,36,0.00,,,0.00,WUHU216HW,2013-06-01 17:16:00,
2013-06-01 13:21:00,101.0,67.3,29.56,SW,225,2.2,4.7,34,0.00,,,0.00,WUHU216HW,2013-06-01 17:21:00,
2013-06-01 13:26:00,100.6,67.9,29.56,SSW,203,1.8,4.7,35,0.00,,,0.00,WUHU216HW,2013-06-01 17:26:00,
2013-06-01 13:31:00,100.6,67.9,29.56,WSW,248,3.4,3.6,35,0.00,,,0.00,WUHU216HW,2013-06-01 17:31:00,
2013-06-01 13:36:00,100.8,68.9,29.56,SSW,203,1.1,5.8,36,0.00,,,0.00,WUHU216HW,2013-06-01 17:36:00,
2013-06-01 13:41:00,101.0,68.1,29.56,ENE,68,1.1,5.8,35,0.00,,,0.00,WUHU216HW,2013-06-01 17:41:00,
2013-06-01 13:46:00,100.8,67.1,29.56,ESE,113,1.6,3.1,34,0.00,,,0.00,WUHU216HW,2013-06-01 17:46:00,
2013-06-01 13:52:00,100.4,66.9,29.56,SE,135,2.5,2.5,34,0.00,,,0.00,WUHU216HW,2013-06-01 17:52:00,
2013-06-01 13:57:00,100.3,66.7,29.56,WSW,248,1.6,4.7,34,0.00,,,0.00,WUHU216HW,2013-06-01 17:57:00,
2013-06-01 14:02:00,100.1,67.3,29.56,SW,224,3.5,4.7,35,0.00,,,0.00,WUHU216HW,2013-06-01 18:02:00,
2013-06-01 14:07:00,100.4,66.9,29.56,SSW,203,1.8,4.7,34,0.00,,,0.00,WUHU216HW,2013-06-01 18:07:00,
2013-06-01 14:12:00,100.3,67.5,29.56,SSW,203,0.9,2.0,35,0.00,,,0.00,WUHU216HW,2013-06-01 18:12:00,
2013-06-01 14:17:00,100.1,67.3,29.56,SE,135,1.8,2.0,35,0.00,,,0.00,WUHU216HW,2013-06-01 18:17:00,
2013-06-01 14:22:00,99.4,66.7,29.56,ESE,113,2.2,2.9,35,0.00,,,0.00,WUHU216HW,2013-06-01 18:22:00,
2013-06-01 14:27:00,98.1,66.4,29.56,WSW,248,2.0,2.9,36,0.00,,,0.00,WUHU216HW,2013-06-01 18:27:00,
2013-06-01 14:32:00,97.9,66.2,29.56,SW,225,0.4,2.7,36,0.00,,,0.00,WUHU216HW,2013-06-01 18:32:00,
2013-06-01 14:38:00,97.2,66.4,29.56,SE,140,1.5,2.2,37,0.00,,,0.00,WUHU216HW,2013-06-01 18:38:00,
2013-06-01 14:43:00,97.2,67.2,29.56,WSW,248,1.2,1.6,38,0.00,,,0.00,WUHU216HW,2013-06-01 18:43:00,
2013-06-01 14:48:00,97.6,66.8,29.56,SW,225,3.1,3.1,37,0.00,,,0.00,WUHU216HW,2013-06-01 18:48:00,
2013-06-01 14:53:00,97.6,65.1,29.56,SW,225,2.2,3.4,35,0.00,,,0.00,WUHU216HW,2013-06-01 18:53:00,
2013-06-01 14:58:00,97.6,62.7,29.56,ENE,68,1.6,3.4,32,0.00,,,0.00,WUHU216HW,2013-06-01 18:58:00,
2013-06-01 15:03:00,97.6,63.5,29.56,SW,220,2.7,3.1,33,0.00,,,0.00,WUHU216HW,2013-06-01 19:03:00,
2013-06-01 15:08:00,97.2,63.1,29.56,West,270,2.7,3.1,33,0.00,,,0.00,WUHU216HW,2013-06-01 19:08:00,
2013-06-01 15:13:00,97.2,63.9,29.55,West,266,0.6,2.7,34,0.00,,,0.00,WUHU216HW,2013-06-01 19:13:00,
2013-06-01 15:18:00,97.2,63.9,29.55,South,180,2.5,2.7,34,0.00,,,0.00,WUHU216HW,2013-06-01 19:18:00,
2013-06-01 15:24:00,97.0,63.8,29.55,West,270,3.1,3.1,34,0.00,,,0.00,WUHU216HW,2013-06-01 19:24:00,
2013-06-01 15:29:00,96.7,64.3,29.55,SW,225,0.9,3.1,35,0.00,,,0.00,WUHU216HW,2013-06-01 19:29:00,
2013-06-01 15:34:00,96.1,66.3,29.55,WSW,243,2.0,3.1,38,0.00,,,0.00,WUHU216HW,2013-06-01 19:34:00,
2013-06-01 15:39:00,96.1,66.3,29.54,SW,225,1.1,2.2,38,0.00,,,0.00,WUHU216HW,2013-06-01 19:39:00,
2013-06-01 15:44:00,95.9,67.0,29.54,West,265,1.7,3.4,39,0.00,,,0.00,WUHU216HW,2013-06-01 19:44:00,
2013-06-01 15:49:00,95.8,66.0,29.54,SW,223,1.6,3.4,38,0.00,,,0.00,WUHU216HW,2013-06-01 19:49:00,
2013-06-01 15:54:00,95.6,65.0,29.54,South,180,1.7,2.0,37,0.00,,,0.00,WUHU216HW,2013-06-01 19:54:00,
2013-06-01 15:59:00,95.2,63.9,29.54,South,191,2.8,5.8,36,0.00,,,0.00,WUHU216HW,2013-06-01 19:59:00,
2013-06-01 16:04:00,94.7,64.2,29.54,WSW,252,2.1,5.8,37,0.00,,,0.00,WUHU216HW,2013-06-01 20:04:00,
2013-06-01 16:10:00,94.7,65.0,29.54,North,0,1.8,4.0,38,0.00,,,0.00,WUHU216HW,2013-06-01 20:10:00,
2013-06-01 16:15:00,94.0,64.4,29.54,West,270,3.4,3.4,38,0.00,,,0.00,WUHU216HW,2013-06-01 20:15:00,
2013-06-01 16:20:00,93.6,64.9,29.54,SSW,206,1.3,4.3,39,0.00,,,0.00,WUHU216HW,2013-06-01 20:20:00,
2013-06-01 16:25:00,93.6,65.7,29.53,WSW,248,3.8,4.3,40,0.00,,,0.00,WUHU216HW,2013-06-01 20:25:00,
2013-06-01 16:30:00,93.4,65.5,29.53,WSW,248,1.8,5.1,40,0.00,,,0.00,WUHU216HW,2013-06-01 20:30:00,
2013-06-01 16:35:00,93.4,65.5,29.53,SW,226,1.1,5.1,40,0.00,,,0.00,WUHU216HW,2013-06-01 20:35:00,
2013-06-01 16:40:00,93.4,64.7,29.53,SW,225,2.0,4.0,39,0.00,,,0.00,WUHU216HW,2013-06-01 20:40:00,
2013-06-01 16:45:00,93.4,64.7,29.53,West,270,1.8,4.0,39,0.00,,,0.00,WUHU216HW,2013-06-01 20:45:00,
2013-06-01 16:50:00,93.2,63.7,29.53,SW,225,1.6,2.0,38,0.00,,,0.00,WUHU216HW,2013-06-01 20:50:00,
2013-06-01 16:56:00,93.2,63.7,29.54,SW,225,2.5,2.5,38,0.00,,,0.00,WUHU216HW,2013-06-01 20:56:00,
2013-06-01 17:01:00,92.9,63.4,29.53,SW,225,0.4,2.7,38,0.00,,,0.00,WUHU216HW,2013-06-01 21:01:00,
2013-06-01 17:06:00,92.7,64.1,29.53,SW,225,1.6,2.7,39,0.00,,,0.00,WUHU216HW,2013-06-01 21:06:00,
2013-06-01 17:11:00,92.5,63.9,29.53,WSW,248,2.5,2.7,39,0.00,,,0.00,WUHU216HW,2013-06-01 21:11:00,
2013-06-01 17:16:00,92.0,63.5,29.53,SW,225,3.1,3.1,39,0.00,,,0.00,WUHU216HW,2013-06-01 21:16:00,
2013-06-01 17:21:00,91.8,64.1,29.53,SSE,158,0.2,3.1,40,0.00,,,0.00,WUHU216HW,2013-06-01 21:21:00,
2013-06-01 17:26:00,91.4,63.7,29.54,SW,225,1.8,3.1,40,0.00,,,0.00,WUHU216HW,2013-06-01 21:26:00,
2013-06-01 17:31:00,91.1,64.7,29.54,SW,225,0.7,1.8,42,0.00,,,0.00,WUHU216HW,2013-06-01 21:31:00,
2013-06-01 17:36:00,90.9,64.5,29.54,SW,225,0.4,0.7,42,0.00,,,0.00,WUHU216HW,2013-06-01 21:36:00,
2013-06-01 17:42:00,90.4,65.3,29.53,WSW,248,4.3,4.3,44,0.00,,,0.00,WUHU216HW,2013-06-01 21:42:00,
2013-06-01 17:47:00,90.2,65.2,29.54,SW,221,1.1,4.3,44,0.00,,,0.00,WUHU216HW,2013-06-01 21:47:00,
2013-06-01 17:52:00,90.0,65.7,29.53,SW,225,0.4,4.3,45,0.00,,,0.00,WUHU216HW,2013-06-01 21:52:00,
2013-06-01 17:57:00,89.8,66.2,29.53,SE,143,0.9,1.1,46,0.00,,,0.00,WUHU216HW,2013-06-01 21:57:00,
2013-06-01 18:02:00,89.6,66.6,29.53,SSW,203,2.0,2.0,47,0.00,,,0.00,WUHU216HW,2013-06-01 22:02:00,
2013-06-01 18:07:00,89.8,66.8,29.53,South,180,0.4,2.0,47,0.00,,,0.00,WUHU216HW,2013-06-01 22:07:00,
2013-06-01 18:12:00,89.8,66.8,29.53,WSW,248,1.6,2.0,47,0.00,,,0.00,WUHU216HW,2013-06-01 22:12:00,
2013-06-01 18:18:00,89.8,66.8,29.53,WSW,248,1.3,1.6,47,0.00,,,0.00,WUHU216HW,2013-06-01 22:18:00,
2013-06-01 18:23:00,89.6,67.3,29.53,West,270,1.1,1.6,48,0.00,,,0.00,WUHU216HW,2013-06-01 22:23:00,
2013-06-01 18:28:00,89.3,67.0,29.53,West,270,1.3,2.5,48,0.00,,,0.00,WUHU216HW,2013-06-01 22:28:00,
2013-06-01 18:33:00,89.1,66.8,29.53,SW,225,0.9,2.5,48,0.00,,,0.00,WUHU216HW,2013-06-01 22:33:00,
2013-06-01 18:38:00,88.9,66.7,29.53,WNW,293,0.4,1.3,48,0.00,,,0.00,WUHU216HW,2013-06-01 22:38:00,
2013-06-01 18:43:00,88.6,67.0,29.53,SW,230,1.3,2.7,49,0.00,,,0.00,WUHU216HW,2013-06-01 22:43:00,
2013-06-01 18:48:00,88.4,66.8,29.53,WNW,293,0.0,2.7,49,0.00,,,0.00,WUHU216HW,2013-06-01 22:48:00,
2013-06-01 18:53:00,88.2,66.7,29.53,WSW,248,0.4,0.4,49,0.00,,,0.00,WUHU216HW,2013-06-01 22:53:00,
2013-06-01 18:58:00,87.8,67.0,29.53,SSE,158,0.7,0.7,50,0.00,,,0.00,WUHU216HW,2013-06-01 22:58:00,
2013-06-01 19:03:00,87.5,66.6,29.53,WSW,248,1.1,1.1,50,0.00,,,0.00,WUHU216HW,2013-06-01 23:03:00,
2013-06-01 19:09:00,87.1,66.9,29.53,NNE,23,0.3,1.1,51,0.00,,,0.00,WUHU216HW,2013-06-01 23:09:00,
2013-06-01 19:14:00,86.8,66.5,29.54,South,180,0.9,1.1,51,0.00,,,0.00,WUHU216HW,2013-06-01 23:14:00,
2013-06-01 19:19:00,86.8,66.0,29.54,SW,225,2.0,2.0,50,0.00,,,0.00,WUHU216HW,2013-06-01 23:19:00,
2013-06-01 19:24:00,86.2,66.1,29.54,West,278,0.6,2.0,51,0.00,,,0.00,WUHU216HW,2013-06-01 23:24:00,
2013-06-01 19:29:00,86.0,65.9,29.54,SW,225,0.4,2.0,51,0.00,,,0.00,WUHU216HW,2013-06-01 23:29:00,
2013-06-01 19:34:00,85.9,66.3,29.54,SW,226,1.2,1.3,52,0.00,,,0.00,WUHU216HW,2013-06-01 23:34:00,
2013-06-01 19:39:00,85.7,66.1,29.54,WSW,248,0.2,1.3,52,0.00,,,0.00,WUHU216HW,2013-06-01 23:39:00,
2013-06-01 19:44:00,85.3,66.2,29.54,WNW,293,0.9,0.9,53,0.00,,,0.00,WUHU216HW,2013-06-01 23:44:00,
2013-06-01 19:49:00,85.0,66.0,29.54,WSW,248,2.2,2.2,53,0.00,,,0.00,WUHU216HW,2013-06-01 23:49:00,
2013-06-01 19:55:00,84.8,65.8,29.54,SW,225,0.0,2.2,53,0.00,,,0.00,WUHU216HW,2013-06-01 23:55:00,
2013-06-01 20:00:00,84.6,66.2,29.54,SW,225,2.0,2.2,54,0.00,,,0.00,WUHU216HW,2013-06-02 00:00:00,
2013-06-01 20:05:00,84.1,65.6,29.54,WSW,240,1.5,2.0,54,0.00,,,0.00,WUHU216HW,2013-06-02 00:05:00,
2013-06-01 20:10:00,83.9,65.4,29.54,WSW,248,2.0,2.0,54,0.00,,,0.00,WUHU216HW,2013-06-02 00:10:00,
2013-06-01 20:15:00,83.5,65.1,29.54,SW,225,1.6,2.0,54,0.00,,,0.00,WUHU216HW,2013-06-02 00:15:00,
2013-06-01 20:20:00,83.2,65.3,29.54,SW,234,0.7,2.0,55,0.00,,,0.00,WUHU216HW,2013-06-02 00:20:00,
2013-06-01 20:25:00,82.8,64.9,29.54,South,180,1.1,1.1,55,0.00,,,0.00,WUHU216HW,2013-06-02 00:25:00,
2013-06-01 20:30:00,82.4,65.1,29.54,SW,225,1.0,1.1,56,0.00,,,0.00,WUHU216HW,2013-06-02 00:30:00,
2013-06-01 20:35:00,82.3,64.9,29.55,WSW,248,4.7,4.7,56,0.00,,,0.00,WUHU216HW,2013-06-02 00:35:00,
2013-06-01 20:40:00,81.9,65.1,29.55,SW,225,0.4,4.7,57,0.00,,,0.00,WUHU216HW,2013-06-02 00:40:00,
2013-06-01 20:46:00,81.7,64.9,29.55,SW,225,0.7,4.7,57,0.00,,,0.00,WUHU216HW,2013-06-02 00:46:00,
2013-06-01 20:51:00,81.4,65.2,29.55,West,270,0.4,0.7,58,0.00,,,0.00,WUHU216HW,2013-06-02 00:51:00,
2013-06-01 20:56:00,81.2,65.0,29.55,SSW,203,0.2,0.7,58,0.00,,,0.00,WUHU216HW,2013-06-02 00:56:00,
2013-06-01 21:01:00,81.0,65.4,29.55,SW,225,0.4,0.4,59,0.00,,,0.00,WUHU216HW,2013-06-02 01:01:00,
2013-06-01 21:06:00,81.0,65.4,29.55,SW,225,0.4,0.4,59,0.00,,,0.00,WUHU216HW,2013-06-02 01:06:00,
2013-06-01 21:11:00,80.6,65.5,29.55,WSW,238,1.3,1.8,60,0.00,,,0.00,WUHU216HW,2013-06-02 01:11:00,
2013-06-01 21:16:00,80.5,65.3,29.56,SW,225,0.4,1.8,60,0.00,,,0.00,WUHU216HW,2013-06-02 01:16:00,
2013-06-01 21:21:00,80.3,65.6,29.55,SW,225,0.2,1.1,61,0.00,,,0.00,WUHU216HW,2013-06-02 01:21:00,
2013-06-01 21:26:00,80.1,65.5,29.56,WSW,248,0.4,0.4,61,0.00,,,0.00,WUHU216HW,2013-06-02 01:26:00,
2013-06-01 21:31:00,79.9,65.8,29.55,WSW,248,0.0,0.4,62,0.00,,,0.00,WUHU216HW,2013-06-02 01:31:00,
2013-06-01 21:36:00,79.6,65.4,29.56,WSW,248,0.4,0.4,62,0.00,,,0.00,WUHU216HW,2013-06-02 01:36:00,
2013-06-01 21:42:00,79.4,65.7,29.56,WSW,248,0.0,0.4,63,0.00,,,0.00,WUHU216HW,2013-06-02 01:42:00,
2013-06-01 21:47:00,79.2,65.5,29.56,WSW,248,0.4,0.4,63,0.00,,,0.00,WUHU216HW,2013-06-02 01:47:00,
2013-06-01 21:52:00,78.5,65.3,29.56,WSW,248,0.7,0.7,64,0.00,,,0.00,WUHU216HW,2013-06-02 01:52:00,
2013-06-01 21:57:00,78.3,65.5,29.56,SW,225,1.8,1.8,65,0.00,,,0.00,WUHU216HW,2013-06-02 01:57:00,
2013-06-01 22:02:00,78.1,65.8,29.56,SW,225,0.7,1.8,66,0.00,,,0.00,WUHU216HW,2013-06-02 02:02:00,
2013-06-01 22:07:00,78.1,65.8,29.56,SW,225,0.7,1.8,66,0.00,,,0.00,WUHU216HW,2013-06-02 02:07:00,
2013-06-01 22:12:00,77.9,65.6,29.56,SE,135,0.0,0.7,66,0.00,,,0.00,WUHU216HW,2013-06-02 02:12:00,
2013-06-01 22:17:00,77.9,66.1,29.56,WSW,248,0.7,0.7,67,0.00,,,0.00,WUHU216HW,2013-06-02 02:17:00,
2013-06-01 22:22:00,77.8,66.3,29.56,WSW,248,0.7,0.7,68,0.00,,,0.00,WUHU216HW,2013-06-02 02:22:00,
2013-06-01 22:28:00,77.8,66.3,29.56,SW,225,0.0,0.7,68,0.00,,,0.00,WUHU216HW,2013-06-02 02:28:00,
2013-06-01 22:33:00,77.6,66.3,29.56,NNW,338,0.0,0.0,68,0.00,,,0.00,WUHU216HW,2013-06-02 02:33:00,
2013-06-01 22:38:00,77.4,66.1,29.56,WSW,248,0.0,0.0,68,0.00,,,0.00,WUHU216HW,2013-06-02 02:38:00,
2013-06-01 22:43:00,77.2,66.8,29.56,WSW,248,0.2,0.2,70,0.00,,,0.00,WUHU216HW,2013-06-02 02:43:00,
2013-06-01 22:48:00,76.9,66.8,29.56,North,0,1.8,1.8,71,0.00,,,0.00,WUHU216HW,2013-06-02 02:48:00,
2013-06-01 22:53:00,76.7,66.6,29.56,WNW,293,0.0,1.8,71,0.00,,,0.00,WUHU216HW,2013-06-02 02:53:00,
2013-06-01 22:58:00,76.5,66.4,29.56,North,0,1.3,1.8,71,0.00,,,0.00,WUHU216HW,2013-06-02 02:58:00,
2013-06-01 23:03:00,76.3,66.7,29.55,North,0,0.0,1.3,72,0.00,,,0.00,WUHU216HW,2013-06-02 03:03:00,
2013-06-01 23:09:00,76.0,67.1,29.55,North,0,0.4,1.3,74,0.00,,,0.00,WUHU216HW,2013-06-02 03:09:00,
2013-06-01 23:14:00,76.0,67.1,29.55,North,0,0.4,0.4,74,0.00,,,0.00,WUHU216HW,2013-06-02 03:14:00,
2013-06-01 23:19:00,75.8,66.9,29.55,North,0,0.2,0.4,74,0.00,,,0.00,WUHU216HW,2013-06-02 03:19:00,
2013-06-01 23:24:00,75.6,67.2,29.55,SW,225,0.4,0.4,75,0.00,,,0.00,WUHU216HW,2013-06-02 03:24:00,
2013-06-01 23:29:00,75.6,67.5,29.55,WSW,248,0.2,0.4,76,0.00,,,0.00,WUHU216HW,2013-06-02 03:29:00,
2013-06-01 23:34:00,75.6,68.0,29.55,ENE,68,0.0,0.4,77,0.00,,,0.00,WUHU216HW,2013-06-02 03:34:00,
2013-06-01 23:39:00,75.6,67.5,29.55,East,90,0.2,0.2,76,0.00,,,0.00,WUHU216HW,2013-06-02 03:39:00,
2013-06-01 23:44:00,75.4,67.8,29.55,NNE,23,1.1,1.1,77,0.00,,,0.00,WUHU216HW,2013-06-02 03:44:00,
2013-06-01 23:50:00,75.2,67.6,29.55,NNE,23,0.2,1.1,77,0.00,,,0.00,WUHU216HW,2013-06-02 03:50:00,
2013-06-01 23:55:00,75.1,67.4,29.55,NNE,23,0.4,1.1,77,0.00,,,0.00,WUHU216HW,2013-06-02 03:55:00,